Погода в Семьинском

Россия / Владимирская область     56°21′53″N   39°45′52″E
темп.,
°C
ветер,
м/с
пор.,
м/с
влажн.,
%
обл.,
%
осадки,
мм/ч
давл.,
гПа
погр.,
м
6 мая, чт
чт600:00+8ююз499773 0.6 1008280
03:00+8ю389719 0.9 1008224
06:00+7ю4895100 0.0 1008201
09:00+12ю61282100 0.0 1007560
12:00+15ю81664100 0.0 10061825
15:00+14ююз10186897 0.9 10061861
18:00+12ююз91767100 0.1 10041424
21:00+9ююз81389100 0.6 10061227
7 мая, пт
пт700:00+7зюз41091100 0.9 1008536
03:00+5юз41096100 0.9 1009381
06:00+6зюз589198 0.0 1010529
09:00+9юз596631 0.0 10111193
12:00+12зюз584791 0.0 10122281
15:00+13юз683976 0.0 10132434
18:00+13ююз585599 0.0 1013655
21:00+7ю41172100 0.0 1014202
8 мая, сб
сб800:00+7ю51371100 0.0 1014314
03:00+7ююв5156990 0.0 1013415
06:00+8ююв61769100 0.0 1011594
09:00+11ююв71565100 0.0 1009925
12:00+10ююв101886100 1.6 10061003
15:00+10ююв81593100 3.8 1005967
18:00+11ю61397100 1.1 1002790
21:00+9юз71293100 5.4 1003768
9 мая, вс
вс900:00+6зюз71189100 0.5 1005775
03:00+4зюз71286100 0.5 10081069
06:00+4зюз61186100 0.0 10111094
09:00+6з7972100 0.0 10141116
12:00+8зсз5767100 0.0 10171231
15:00+10ссз4658100 0.1 10181537
18:00+10с2465100 0.1 1021829
21:00+5ссз33775 0.2 102340
10 мая, пн
пн1000:00+4с22822 0.0 102518
03:00+3ссз22830 0.0 102713
06:00+4с23795 0.0 102976
09:00+10св125640 0.0 1029560
12:00+13ссв114230 0.0 10291320
15:00+15в12397 0.0 10281524
18:00+14вюв22535 0.0 1028195
21:00+8ююв22600 0.0 103017